El Centro, CA

2:18 PM PDT on March 26, 2017 (GMT -0700)
El Centro Naval Air Facility

Weather History for KNJK - October, 2011

Change the Weather History Date:

Sunday, October 16, 2011

  Actual Average Record
Temperature  
Mean Temperature 81 °F -  
Max Temperature 100 °F 89 °F 100 °F (2011)
Min Temperature 62 °F 61 °F 55 °F (2008)
Cooling Degree Days 16    
Growing Degree Days 31 (Base 50)    
Moisture  
Dew Point 44 °F    
Average Humidity 28    
Maximum Humidity 48    
Minimum Humidity 11    
Precipitation  
Precipitation 0.00 in - - ()
Sea Level Pressure  
Sea Level Pressure 29.89 in    
Wind  
Wind Speed 4 mph (SSW)    
Max Wind Speed 10 mph    
Max Gust Speed -    
Visibility 10 miles    
Events      
Averages and records for this station are not official NWS values.
T = Trace of Precipitation, MM = Missing Value Source: NWS Daily Summary

Daily Weather History Graph

Daily Weather History Graph

Search for Another Location

Airport or City:

Trip Planner

Search our weather history database for the weather conditions in past years. The results will help you decide how hot, cold, wet, or windy it might be!

Date:

Astronomy

Oct. 16, 2011 Rise Set
Actual Time 6:47 AM PDT 6:08 PM PDT
Civil Twilight 6:22 AM PDT 6:33 PM PDT
Nautical Twilight 5:53 AM PDT 7:02 PM PDT
Astronomical Twilight 5:25 AM PDT 7:30 PM PDT
Moon 9:11 PM PDT (10/16) 10:54 AM PDT (10/16)
Length of Visible Light 12h 10m
Length of Day
11h 21m
Waning Gibbous, 81% of the Moon is Illuminated
Oct 16
Waning Gibbous
Oct 19
Last Quarter
Oct 26
New
Nov 2
First Quarter
Nov 10
Full

Hourly Weather History & Observations

Time (PDT) Temp. Dew Point Humidity Pressure Visibility Wind Dir Wind Speed Gust Speed Precip Events Conditions
12:56 AM 73.9 °F 36.0 °F 25% 29.86 in 10.0 mi NW 5.8 mph - N/A   Clear
1:56 AM 70.0 °F 41.0 °F 35% 29.86 in 10.0 mi SW 3.5 mph - N/A   Clear
2:55 AM - - N/A% - - North - - N/A   Unknown
2:56 AM 66.0 °F 41.0 °F 40% 29.86 in 10.0 mi Calm Calm - N/A   Clear
3:16 AM - - N/A% - - North - - N/A   Unknown
3:56 AM 68.0 °F 41.0 °F 37% 29.86 in 10.0 mi South 3.5 mph - N/A   Clear
4:56 AM 66.0 °F 41.0 °F 40% 29.87 in 10.0 mi SSW 4.6 mph - N/A   Clear
5:56 AM 63.0 °F 43.0 °F 48% 29.88 in 10.0 mi South 3.5 mph - N/A   Clear
6:55 AM - - N/A% - - North - - N/A   Unknown
6:56 AM 62.1 °F 39.0 °F 43% 29.88 in 10.0 mi Calm Calm - N/A   Clear
7:56 AM 68.0 °F 44.1 °F 42% 29.91 in 10.0 mi South 3.5 mph - N/A   Clear
8:56 AM 75.9 °F 46.0 °F 35% 29.94 in 7.0 mi Calm Calm - N/A   Clear
9:56 AM 82.9 °F 39.9 °F 22% 29.94 in 10.0 mi Calm Calm - N/A   Clear
10:56 AM 89.1 °F 39.9 °F 18% 29.94 in 10.0 mi Calm Calm - N/A   Clear
11:56 AM 93.0 °F 46.0 °F 20% 29.92 in 10.0 mi Variable 3.5 mph - N/A   Clear
12:56 PM 96.1 °F 42.1 °F 15% 29.90 in 10.0 mi ESE 5.8 mph - N/A   Clear
1:56 PM 99.0 °F 41.0 °F 14% 29.87 in 10.0 mi NE 5.8 mph - N/A   Clear
2:56 PM 100.0 °F 37.0 °F 11% 29.86 in 10.0 mi ENE 5.8 mph - N/A   Clear
3:56 PM 99.0 °F 46.9 °F 17% 29.86 in 10.0 mi ESE 3.5 mph - N/A   Clear
4:56 PM 97.0 °F 48.0 °F 19% 29.85 in 10.0 mi SE 3.5 mph - N/A   Clear
5:56 PM 93.9 °F 43.0 °F 17% 29.85 in 10.0 mi SSW 3.5 mph - N/A   Clear
6:56 PM 91.9 °F 43.0 °F 18% 29.87 in 10.0 mi SW 4.6 mph - N/A   Clear
7:56 PM 88.0 °F 48.0 °F 25% 29.89 in 10.0 mi WSW 10.4 mph - N/A   Clear
8:56 PM 84.9 °F 51.1 °F 31% 29.91 in 10.0 mi WSW 8.1 mph - N/A   Clear
9:56 PM 82.0 °F 51.1 °F 34% 29.92 in 10.0 mi West 3.5 mph - N/A   Clear
10:56 PM 79.0 °F 48.9 °F 35% 29.93 in 10.0 mi South 3.5 mph - N/A   Clear
11:56 PM 77.0 °F 48.0 °F 36% 29.94 in 10.0 mi West 8.1 mph - N/A   Clear